NOAA 16 DEB, 42348

Orbit data source: Space-Track

NOAA 16 DEB, 42348 is space debris in SSO originally from a launch on Thu, 21 Sep 2000 UTC launched from the Air Force Western Test Range (AFWTR). Debris objects in space refer to the collection of defunct objects orbiting the Earth. Examples of debris include non-operational satellites, rocket bodies, and fragments generated from explosions, collisions, or faulty payload assembly.

Loading next visibility...
Identifier
42348, 2000-055QQ
Orbit
SSO
Country
Flag of USUS
Related business
Manufacturer
Unknown
Mission
Spacecraft
Bus & Motor
Unknown
Mass
Unknown
Launch date (UTC)
2000-09-21 (25 years ago)
Launch vehicle
Unknown
Launch site
Air Force Western Test Range (AFWTR)
Object type
Payload
Rocket body
Debris
Shape & HBR
Unknown
Radar Cross Section
Small (<0.1 m²)

Expand to show TLE details & history
Last TLE update: 2 days ago

TLE from 2 days ago
0 NOAA 16 DEB
1 42348U 00055QQ  25256.22367072  .00002503  00000-0  13196-2 0  9992
2 42348  98.7945 247.0546 0058806 354.2968   5.7529 14.13960121490107
Epoch: 2025-09-13T05:22Z
TLE epoch observation values (Epoch: 2025-09-13T05:22:05.15Z)
Latitude
0.00004°
Longitude
174.07303°
Altitude
806.482 km
Speed
7.472 km/s
True Right ascension
16h 28m 13s
True Declination
0° 00' 00"
Sunlit
Object was in daylight at epoch
Visualization orbit readout
Latitude
Unknown
Longitude
Unknown
Altitude
Unknown
Speed
Unknown
Apparent Right ascension
Unknown
Apparent Declination
Unknown
Sunlit
N/A
Visualization observer readout
Local Sidereal Time
04:15:26
Azimuth
Unknown
Elevation
Unknown
Doppler factor
Unknown
Orbital elements
Apogee altitude
885.487 km
Perigee altitude
800.558 km
Semi-major axis
7,221.159 km
Eccentricity
0.00588
Inclination
98.7945°
RAAN
247.0546°
Arg. of periapsis
354.2968°
True anomaly
5.82094°
Mean anomaly
5.7529°
Eccentric anomaly
5.78687°
Mean motion
3.53698 °/min
Orbital period
101.78 mins
BSTAR
0.0013196
Loading maneuver chart data...
Computing Atmospheric mass density...
Loading historical data...
Loading historical data...
Loading historical data...
Loading historical data...
Loading historical data...
Loading historical data...
Loading historical data...

Documentation

Showing up to 5 results
|